Change the Weather History Date:

Friday, February 28, 2014

  Actual Average Record
Temperature  
Mean Temperature 54 °F -  
Max Temperature 57 °F 63 °F 75 °F (1954)
Min Temperature 51 °F 42 °F 25 °F (1955)
Degree Days  
Heating Degree Days 11    
Growing Degree Days 4 (Base 50)    
Moisture  
Dew Point 51 °F    
Average Humidity 93    
Maximum Humidity 97    
Minimum Humidity 77    
Precipitation  
Precipitation 1.28 in - - ()
Sea Level Pressure  
Sea Level Pressure 29.47 in    
Wind  
Wind Speed 8 mph (SE)    
Max Wind Speed 17 mph    
Max Gust Speed 26 mph    
Visibility 7 miles    
Events Rain    
Averages and records for this station are not official NWS values.
T = Trace of Precipitation, MM = Missing Value Source: NWS Daily Summary

Daily Weather History Graph

Daily Weather History Graph

Search for Another Location

Airport or City:

Trip Planner

Search our weather history database for the weather conditions in past years. The results will help you decide how hot, cold, wet, or windy it might be!

Date:

Astronomy

Feb. 28, 2014 Rise Set
Actual Time 6:41 AM PST 6:00 PM PST
Civil Twilight 6:14 AM PST 6:26 PM PST
Nautical Twilight 5:43 AM PST 6:57 PM PST
Astronomical Twilight 5:13 AM PST 7:28 PM PST
Moon 5:59 AM PST 5:43 PM PST
Length of Visible Light 12h 12m
Length of Day
11h 19m
Waning Crescent, 0% of the Moon is Illuminated
Feb 28
Waning Crescent
Mar 1
New
Mar 8
First Quarter
Mar 16
Full
Mar 23
Last Quarter

Hourly Weather History & Observations

Time (PST) Temp. Dew Point Humidity Pressure Visibility Wind Dir Wind Speed Gust Speed Precip Events Conditions
12:53 AM 54.0 °F 46.9 °F 77% 29.59 in 10.0 mi Variable 6.9 mph - N/A   Mostly Cloudy
1:53 AM 53.1 °F 48.0 °F 83% 29.56 in 9.0 mi Variable 4.6 mph - 0.01 in Rain Light Rain
2:53 AM 52.0 °F 50.0 °F 93% 29.52 in 5.0 mi Variable 3.5 mph - 0.11 in Rain Rain
3:16 AM 51.1 °F 50.0 °F 96% 29.51 in 3.0 mi Calm Calm - 0.09 in Rain Rain
3:33 AM 51.1 °F 50.0 °F 96% 29.49 in 2.5 mi NE 8.1 mph - 0.20 in Rain Heavy Rain
3:37 AM 51.1 °F 50.0 °F 96% 29.49 in 3.0 mi Variable 3.5 mph - 0.22 in Rain Heavy Rain
3:45 AM 51.1 °F 50.0 °F 96% 29.48 in 3.0 mi ENE 6.9 mph - 0.26 in Rain Heavy Rain
3:53 AM 51.1 °F 50.0 °F 96% 29.49 in 3.0 mi SE 13.8 mph 20.7 mph 0.30 in Rain Heavy Rain
4:14 AM 52.0 °F 50.0 °F 93% 29.51 in 2.5 mi South 12.7 mph 25.3 mph 0.16 in Rain Heavy Rain
4:34 AM 51.1 °F 50.0 °F 96% 29.49 in 2.5 mi SSE 17.3 mph 26.5 mph 0.36 in Rain Heavy Rain
4:44 AM 51.1 °F 50.0 °F 96% 29.48 in 3.0 mi SE 12.7 mph 25.3 mph 0.41 in Rain Heavy Rain
4:53 AM 51.1 °F 50.0 °F 96% 29.47 in 6.0 mi SE 12.7 mph - 0.43 in Rain Light Rain
5:53 AM 52.0 °F 50.0 °F 93% 29.44 in 5.0 mi SE 12.7 mph 20.7 mph 0.14 in Rain Rain
6:53 AM 52.0 °F 50.0 °F 93% 29.44 in 10.0 mi SSE 8.1 mph 19.6 mph 0.08 in   Overcast
7:39 AM 52.0 °F 50.0 °F 93% 29.43 in 9.0 mi SE 11.5 mph - 0.03 in Rain Light Rain
7:53 AM 52.0 °F 50.0 °F 93% 29.43 in 10.0 mi ESE 9.2 mph - 0.03 in   Overcast
8:32 AM 53.1 °F 51.1 °F 93% 29.44 in 7.0 mi ESE 13.8 mph 25.3 mph 0.00 in Rain Light Rain
8:46 AM 52.0 °F 51.1 °F 97% 29.45 in 2.0 mi ESE 13.8 mph 21.9 mph 0.06 in Rain Heavy Rain
8:53 AM 52.0 °F 51.1 °F 97% 29.45 in 2.5 mi ESE 11.5 mph 21.9 mph 0.07 in Rain Light Rain
9:00 AM 52.0 °F 51.1 °F 97% 29.45 in 3.0 mi SE 10.4 mph 19.6 mph 0.01 in Rain Light Rain
9:45 AM 53.1 °F 52.0 °F 96% 29.46 in 2.0 mi SE 11.5 mph - 0.04 in Rain Rain
9:53 AM 53.1 °F 52.0 °F 96% 29.46 in 2.5 mi SE 8.1 mph - 0.04 in Rain Light Rain
10:00 AM 53.1 °F 52.0 °F 96% 29.46 in 4.0 mi SSE 9.2 mph - 0.01 in Rain Light Rain
10:04 AM 53.1 °F 52.0 °F 96% 29.46 in 2.5 mi SSE 10.4 mph - 0.03 in Rain Light Rain
10:21 AM 55.0 °F 54.0 °F 96% 29.46 in 8.0 mi South 5.8 mph - 0.04 in   Mostly Cloudy
10:38 AM 55.0 °F 54.0 °F 96% 29.46 in 10.0 mi SSE 8.1 mph - 0.04 in   Mostly Cloudy
10:53 AM 55.9 °F 54.0 °F 93% 29.45 in 10.0 mi SSE 6.9 mph - 0.04 in   Overcast
11:24 AM 57.0 °F 54.0 °F 89% 29.45 in 10.0 mi SSE 9.2 mph - N/A   Overcast
11:44 AM 57.0 °F 54.0 °F 89% 29.45 in 10.0 mi SSE 8.1 mph - N/A   Overcast
11:53 AM 57.0 °F 54.0 °F 89% 29.44 in 10.0 mi SSE 6.9 mph - N/A   Overcast
12:53 PM 57.9 °F 53.1 °F 84% 29.42 in 10.0 mi SE 9.2 mph - 0.00 in Rain Light Rain
1:53 PM 55.9 °F 54.0 °F 93% 29.41 in 9.0 mi SSE 6.9 mph - 0.00 in Rain Light Rain
2:53 PM 55.9 °F 52.0 °F 87% 29.40 in 10.0 mi SSE 6.9 mph - 0.00 in   Mostly Cloudy
3:53 PM 55.9 °F 53.1 °F 90% 29.39 in 10.0 mi SSE 6.9 mph - 0.00 in   Mostly Cloudy
4:53 PM 55.9 °F 48.9 °F 77% 29.41 in 9.0 mi SW 6.9 mph - 0.01 in Rain Light Rain
5:53 PM 54.0 °F 51.1 °F 90% 29.44 in 10.0 mi South 4.6 mph - 0.00 in   Overcast
6:53 PM 54.0 °F 50.0 °F 86% 29.45 in 10.0 mi South 3.5 mph - 0.01 in   Overcast
7:30 PM 53.1 °F 52.0 °F 96% 29.48 in 8.0 mi SSE 4.6 mph - 0.01 in Rain Light Rain
7:53 PM 52.0 °F 50.0 °F 93% 29.48 in 10.0 mi SSE 5.8 mph - 0.01 in   Overcast
8:13 PM 52.0 °F 51.1 °F 97% 29.49 in 10.0 mi SE 3.5 mph - 0.00 in   Overcast
8:53 PM 52.0 °F 51.1 °F 97% 29.50 in 10.0 mi SE 3.5 mph - 0.00 in   Overcast
9:53 PM 52.0 °F 51.1 °F 97% 29.52 in 10.0 mi SE 4.6 mph - N/A   Mostly Cloudy
10:53 PM 52.0 °F 51.1 °F 97% 29.53 in 10.0 mi Calm Calm - N/A   Overcast
11:01 PM 52.0 °F 51.1 °F 97% 29.54 in 10.0 mi Calm Calm - N/A   Overcast
11:09 PM 52.0 °F 51.1 °F 97% 29.54 in 10.0 mi ESE 3.5 mph - N/A   Overcast
11:53 PM 51.1 °F 50.0 °F 96% 29.54 in 7.0 mi Calm Calm - 0.00 in Rain Light Rain